FW0479 Weather Reports


time (UTC)temp
F
wind
direction
speed
knots
gust
knots
rain 1hr
in
rain 24hr
in
rain mn
in
humidity
%
barometer
mb
20211205102121 44 315 0.0 0.0 0.00 0.00 0.00 91 1023.0
20211205101123 44 203 0.0 0.0 0.00 0.00 0.00 90 1023.1
20211205100124 44 203 0.0 0.0 0.00 0.00 0.00 90 1023.2
20211205095122 44 293 0.0 0.0 0.00 0.00 0.00 90 1023.2
20211205094121 44 203 0.0 0.0 0.00 0.00 0.00 90 1023.2
20211205093122 44 203 0.0 0.0 0.00 0.00 0.00 90 1023.0
20211205092122 44 180 0.0 0.0 0.00 0.00 0.00 90 1023.0
20211205091122 45 225 0.0 0.0 0.00 0.00 0.00 89 1023.0
20211205090122 45 293 0.0 0.0 0.00 0.00 0.00 89 1022.9
20211205085122 45 225 0.0 0.0 0.00 0.00 0.00 89 1022.9
20211205084123 45 225 0.0 0.0 0.00 0.00 0.00 89 1022.9
20211205083122 46 270 0.0 0.0 0.00 0.00 0.00 89 1022.9
20211205082122 46 113 0.0 0.9 0.00 0.00 0.00 89 1022.9
20211205081122 46 122 0.9 2.6 0.00 0.00 0.00 89 1022.8
20211205080121 46 270 0.0 0.0 0.00 0.00 0.00 89 1022.7
20211205075121 46 69 0.0 1.7 0.00 0.00 0.00 89 1022.7
20211205074122 45 90 0.0 0.0 0.00 0.00 0.00 89 1022.7
20211205073124 45 270 0.0 0.0 0.00 0.00 0.00 89 1022.7
20211205072124 46 203 0.0 0.0 0.00 0.00 0.00 89 1022.7
20211205071124 46 225 0.0 0.0 0.00 0.00 0.00 89 1022.8
20211205070122 46 225 0.0 0.0 0.00 0.00 0.00 89 1022.7
20211205065121 46 203 0.0 0.0 0.00 0.00 0.00 89 1022.9
20211205064122 46 180 0.0 0.0 0.00 0.00 0.00 88 1022.9
20211205063122 46 180 0.0 0.0 0.00 0.00 0.00 88 1022.8
20211205062122 46 338 0.0 0.0 0.00 0.00 0.00 88 1022.7
20211205061123 46 338 0.0 0.0 0.00 0.00 0.00 87 1022.5
20211205060124 46 248 0.0 0.0 0.00 0.00 0.00 87 1022.5
20211205055123 46 293 0.0 0.0 0.00 0.00 0.00 87 1022.4
20211205054121 46 225 0.0 0.0 0.00 0.00 0.00 86 1022.4
20211205053122 47 90 0.0 0.0 0.00 0.00 0.00 86 1022.3
20211205052122 47 68 0.0 0.0 0.00 0.00 0.00 86 1022.2
20211205051122 47 248 0.0 0.0 0.00 0.00 0.00 86 1022.1
20211205050122 48 248 0.0 0.0 0.00 0.00 0.00 86 1021.9
20211205045122 48 203 0.0 0.0 0.00 0.00 0.07 86 1021.9
20211205044123 48 203 0.0 0.0 0.00 0.00 0.07 86 1021.9
20211205043122 48 270 0.0 0.0 0.00 0.00 0.07 86 1022.0
20211205042122 48 203 0.0 0.0 0.00 0.00 0.07 85 1022.0
20211205041122 48 113 0.0 0.0 0.00 0.00 0.07 85 1022.1
20211205040122 49 338 0.0 0.0 0.00 0.00 0.07 85 1021.8
20211205035122 49 270 0.0 0.0 0.00 0.00 0.07 84 1021.8
20211205034121 50 248 0.0 0.0 0.00 0.00 0.07 84 1021.8
20211205033122 50 180 0.0 0.0 0.00 0.00 0.07 84 1021.7
20211205032123 50 102 0.9 1.7 0.00 0.00 0.07 83 1021.8
20211205031123 51 284 0.9 1.7 0.00 0.00 0.07 83 1021.7
20211205030123 51 270 0.9 1.7 0.00 0.00 0.07 83 1021.7
20211205025121 52 86 0.9 2.6 0.00 0.00 0.07 82 1021.5
20211205024122 52 23 0.0 0.0 0.00 0.00 0.07 81 1021.5
20211205023121 53 203 0.0 0.0 0.00 0.00 0.07 81 1021.6
20211205022121 53 270 0.0 0.0 0.00 0.00 0.07 81 1021.3
20211205021121 53 203 0.0 0.0 0.00 0.00 0.07 81 1021.4
20211205020122 53 247 0.0 1.7 0.00 0.00 0.07 81 1021.3
20211205015123 53 259 0.9 1.7 0.00 0.00 0.07 81 1021.3
20211205014123 53 270 0.0 0.0 0.00 0.00 0.07 81 1021.3
20211205013122 53 248 0.0 0.0 0.00 0.00 0.07 81 1020.8
20211205012122 53 270 0.0 0.0 0.00 0.00 0.07 80 1020.7
20211205011122 54 203 0.0 0.0 0.00 0.00 0.07 78 1020.6
20211205010121 55 293 0.0 0.0 0.00 0.00 0.07 78 1020.5
20211205005122 55 293 0.0 0.0 0.00 0.00 0.07 78 1020.4
20211205004122 56 180 0.0 0.0 0.00 0.00 0.07 76 1020.4
20211205003122 57 42 0.0 1.7 0.00 0.00 0.07 76 1020.2
20211205002122 57 180 0.0 0.0 0.00 0.00 0.07 76 1020.1
20211205001122 57 203 0.0 0.0 0.00 0.00 0.07 75 1019.9
20211205000122 58 225 0.0 0.0 0.00 0.00 0.07 73 1019.6
20211204235121 59 203 0.0 0.0 0.00 0.00 0.07 71 1019.8
20211204234121 59 203 0.0 0.0 0.00 0.00 0.07 71 1019.8
20211204233122 59 180 0.0 0.0 0.00 0.00 0.07 69 1019.5
20211204232122 59 203 0.0 0.0 0.00 0.00 0.07 69 1019.7
20211204231123 60 225 0.0 0.0 0.00 0.00 0.07 69 1019.5
20211204230122 60 225 0.0 0.0 0.00 0.00 0.07 68 1019.4
20211204225122 61 225 0.0 0.0 0.00 0.00 0.07 67 1019.3
20211204224122 62 180 0.0 0.0 0.00 0.00 0.07 66 1019.3
20211204223122 63 90 0.0 0.0 0.00 0.00 0.07 65 1019.3
20211204222122 64 293 0.0 0.0 0.00 0.00 0.07 62 1019.2
20211204221122 64 203 0.0 0.0 0.00 0.00 0.07 60 1019.2
20211204220123 66 270 0.0 0.0 0.00 0.00 0.07 59 1019.0
20211204215122 66 248 0.0 0.0 0.00 0.00 0.07 58 1018.9
20211204214122 67 225 0.0 0.0 0.00 0.00 0.07 57 1018.9
20211204213122 68 248 0.0 0.0 0.00 0.00 0.07 56 1018.7
20211204212122 68 180 0.0 0.0 0.00 0.00 0.07 55 1018.7
20211204211122 69 45 0.0 0.0 0.00 0.00 0.07 54 1018.6
20211204210122 70 135 0.0 0.0 0.00 0.00 0.07 51 1018.4
20211204205122 71 158 0.0 0.0 0.00 0.00 0.07 50 1018.4
20211204204123 71 128 0.0 1.7 0.00 0.00 0.07 50 1018.4
20211204203123 71 123 0.9 1.7 0.00 0.00 0.07 50 1018.3
20211204202123 71 158 0.0 0.0 0.00 0.00 0.07 51 1018.2
20211204201122 72 85 0.0 1.7 0.00 0.00 0.07 50 1018.2
20211204200122 71 172 0.9 1.7 0.00 0.00 0.07 50 1018.1
20211204195122 72 163 0.0 1.7 0.00 0.00 0.07 49 1018.0
20211204194121 71 222 0.9 2.6 0.00 0.00 0.07 49 1018.0
20211204193122 71 82 0.0 1.7 0.00 0.00 0.07 49 1018.1
20211204192122 71 68 0.0 1.7 0.00 0.00 0.07 49 1018.0
20211204191122 73 108 1.7 2.6 0.00 0.00 0.07 46 1018.2
20211204190123 72 95 1.7 2.6 0.00 0.00 0.07 48 1018.2
20211204185121 74 39 2.6 4.3 0.00 0.00 0.07 45 1018.3
20211204184122 74 183 0.9 2.6 0.00 0.00 0.07 47 1018.3
20211204183121 73 65 1.7 2.6 0.00 0.00 0.07 46 1018.2
20211204182122 73 238 1.7 2.6 0.00 0.00 0.07 44 1018.5
20211204181121 72 219 1.7 3.5 0.00 0.00 0.07 50 1018.7
20211204180122 69 293 0.0 0.0 0.00 0.00 0.07 56 1018.8
20211204175121 68 114 0.0 1.7 0.00 0.00 0.07 56 1018.8
20211204174121 67 49 0.9 1.7 0.00 0.00 0.07 57 1018.8
20211204173122 67 84 1.7 2.6 0.00 0.00 0.07 56 1018.9
20211204172122 67 143 1.7 3.5 0.00 0.00 0.07 57 1019.2
20211204171121 66 117 0.9 2.6 0.07 0.00 0.07 59 1019.3
20211204170121 65 108 1.7 2.6 0.07 0.00 0.07 60 1019.5
20211204165121 66 84 1.7 3.5 0.07 0.00 0.07 62 1019.7
20211204164122 64 11 1.7 2.6 0.07 0.00 0.07 63 1019.7
20211204163121 63 12 1.7 2.6 0.07 0.00 0.07 64 1019.8
20211204162122 63 46 1.7 2.6 0.07 0.00 0.07 67 1019.8